Regional Weather Roundup
Issued by NWS Burlington, VT

Home | Current Version | Previous Version | Text Only | Print | Product List | Glossary On
Versions: 1 2 3 4 5 6 7 8 9 10 11 12 13 14 15 16 17 18 19 20 21 22 23 24 25 26 27 28 29 30 31 32 33 34 35 36 37 38 39 40 41 42 43 44 45 46 47 48 49 50
000
ASUS41 KBTV 281710
RWRBTV
VERMONT REGIONAL WEATHER ROUNDUP
NATIONAL WEATHER SERVICE BURLINGTON VT
100 PM EDT THU JUL 28 2016

NOTE: "FAIR" INDICATES FEW OR NO CLOUDS BELOW 12,000 FEET WITH NO
SIGNIFICANT WEATHER AND/OR OBSTRUCTIONS TO VISIBILITY.

* THESE REPORTS ARE NOT UNDER NWS QUALITY CONTROL AND/OR DO NOT
  REPORT WEATHER SUCH AS PRECIPITATION AND FOG.

VTZ001>019-281800-
_____VERMONT_____


CITY           SKY/WX    TMP DP  RH WIND       PRES   REMARKS
BURLINGTON     PTSUNNY   79  66  64 CALM      29.89F
MONTPELIER     FAIR      82  66  58 NW6       29.94F
MORRISVILLE    LGT RAIN  73  65  75 NE3       29.92F
ST. JOHNSBURY*   N/A     81  66  60 MISG      29.88S
LYNDONVILLE*   FAIR      76  65  69 W7        29.95R
MIDDLEBURY*    FAIR      84  65  51 S3        29.89S
RUTLAND*       FAIR      84  65  52 SW13      29.90F
SPRINGFIELD    PTSUNNY   87  64  46 VRB7      29.89F
HIGHGATE*      FAIR      79  67  67 CALM      29.89F
NEWPORT*       FAIR      76  67  72 W6        29.92F
BENNINGTON     FAIR      88  63  43 NW9       29.91F
SUTTON*          N/A     73 N/A N/A MISG        N/A

_____LAKE CHAMPLAIN_____


CITY           SKY/WX    TMP DP  RH WIND       PRES   REMARKS
BURTON ISLAND*   N/A     77  66  69 S1          N/A
COLCHESTER RF*   N/A     75  68  78 S1          N/A
DIAMOND ISL*     N/A     79  64  61 N2          N/A

$$

NYZ007-026>031-035-052-083-087-281800-
_____NORTHERN NEW YORK_____


CITY           SKY/WX    TMP DP  RH WIND       PRES   REMARKS
PLATTSBURGH    CLOUDY    80  67  64 E6        29.87F
SARANAC LAKE   PTSUNNY   73  67  81 SW7       29.95S
MASSENA        CLOUDY    78  66  66 N7        29.91F
OGDENSBURG*    SUNNY     77  66  69 N7        29.91S
POTSDAM*       CLOUDY    75  72  88 N5        29.91S
WATERTOWN      MOSUNNY   83  64  52 W9        29.90S
FT DRUM        CLOUDY    85  65  51 SW9       29.89F
ALBANY         CLOUDY    87  63  44 SW3       29.89F
GLENS FALLS    PTSUNNY   85  69  58 S8        29.88F

$$
NHZ002-005-011-281800-
_____NEW HAMPSHIRE_____


CITY           SKY/WX    TMP DP  RH WIND       PRES   REMARKS
LEBANON        CLOUDY    87  65  47 VRB5      29.87F
KEENE          PTSUNNY   89  63  41 SW12      29.88F HX  90
MT WASHINGTON  FOG       61  61 100 W15         N/A  VSB 1/8
PLYMOUTH       FAIR      87  62  43 W8        29.87F
WHITEFIELD     MOSUNNY   83  64  52 W5        29.90F

$$

_____REGIONAL QUEBEC LOCATIONS_____


CITY           SKY/WX    TMP DP  RH WIND       PRES   REMARKS
MONTREAL       CLOUDY    77  63  61 W13       29.89F
QUEBEC CITY    PTSUNNY   75  63  64 SW5       29.87S
SHERBROOKE     MOSUNNY   79  64  61 SW6       29.89F

_____REGIONAL ONTARIO LOCATIONS_____


CITY           SKY/WX    TMP DP  RH WIND       PRES   REMARKS
OTTAWA         PTSUNNY   79  57  47 VRB2      29.92F

______KEY______
VSB  - VISIBILITY IN MILES
WCI  - WIND CHILL INDEX
HX   - HEAT INDEX
$$
NNNN




USA.gov is the U.S. government's official web portal to all federal, state and local government web resources and services.